Year,Month,Day,Hour,Minute,Value (Times are PST for temperature in C)
2008,08,17,00,00,21.00
2008,08,17,00,01,20.90
2008,08,17,00,02,20.90
2008,08,17,00,03,20.90
2008,08,17,00,04,20.90
2008,08,17,00,05,20.90
2008,08,17,00,06,20.90
2008,08,17,00,07,20.90
2008,08,17,00,08,20.80
2008,08,17,00,09,20.80
2008,08,17,00,10,20.80
2008,08,17,00,11,20.80
2008,08,17,00,12,20.80
2008,08,17,00,13,20.80
2008,08,17,00,14,20.80
2008,08,17,00,15,20.70
2008,08,17,00,16,20.70
2008,08,17,00,17,20.70
2008,08,17,00,18,20.70
2008,08,17,00,19,20.60
2008,08,17,00,20,20.60
2008,08,17,00,21,20.60
2008,08,17,00,22,20.60
2008,08,17,00,23,20.60
2008,08,17,00,24,20.60
2008,08,17,00,25,20.50
2008,08,17,00,26,20.50
2008,08,17,00,27,20.50
2008,08,17,00,28,20.40
2008,08,17,00,29,20.40
2008,08,17,00,30,20.40
2008,08,17,00,31,20.40
2008,08,17,00,32,20.40
2008,08,17,00,33,20.40
2008,08,17,00,34,20.30
2008,08,17,00,35,20.30
2008,08,17,00,36,20.30
2008,08,17,00,37,20.30
2008,08,17,00,38,20.30
2008,08,17,00,39,20.30
2008,08,17,00,40,20.20
2008,08,17,00,41,20.20
2008,08,17,00,42,20.20
2008,08,17,00,43,20.20
2008,08,17,00,44,20.20
2008,08,17,00,45,20.20
2008,08,17,00,46,20.10
2008,08,17,00,47,20.10
2008,08,17,00,48,20.10
2008,08,17,00,49,20.10
2008,08,17,00,50,20.10
2008,08,17,00,51,20.10
2008,08,17,00,52,20.10
2008,08,17,00,53,20.00
2008,08,17,00,54,20.00
2008,08,17,00,55,20.00
2008,08,17,00,56,20.00
2008,08,17,00,57,20.00
2008,08,17,00,58,20.00
2008,08,17,00,59,19.90
2008,08,17,01,00,19.90
2008,08,17,01,01,19.90
2008,08,17,01,02,19.90
2008,08,17,01,03,19.90
2008,08,17,01,04,19.90
2008,08,17,01,05,19.90
2008,08,17,01,06,19.80
2008,08,17,01,07,19.80
2008,08,17,01,08,19.80
2008,08,17,01,09,19.80
2008,08,17,01,10,19.80
2008,08,17,01,11,19.80
2008,08,17,01,12,19.80
2008,08,17,01,13,19.80
2008,08,17,01,14,19.70
2008,08,17,01,15,19.70
2008,08,17,01,16,19.70
2008,08,17,01,17,19.70
2008,08,17,01,18,19.70
2008,08,17,01,19,19.70
2008,08,17,01,20,19.70
2008,08,17,01,21,19.70
2008,08,17,01,22,19.70
2008,08,17,01,23,19.70
2008,08,17,01,24,19.70
2008,08,17,01,25,19.70
2008,08,17,01,26,19.70
2008,08,17,01,27,19.70
2008,08,17,01,28,19.70
2008,08,17,01,29,19.70
2008,08,17,01,30,19.60
2008,08,17,01,31,19.60
2008,08,17,01,32,19.60
2008,08,17,01,33,19.60
2008,08,17,01,34,19.60
2008,08,17,01,35,19.60
2008,08,17,01,36,19.60
2008,08,17,01,37,19.60
2008,08,17,01,38,19.60
2008,08,17,01,39,19.60
2008,08,17,01,40,19.50
2008,08,17,01,41,19.50
2008,08,17,01,42,19.50
2008,08,17,01,43,19.50
2008,08,17,01,44,19.50
2008,08,17,01,45,19.40
2008,08,17,01,46,19.40
2008,08,17,01,47,19.40
2008,08,17,01,48,19.40
2008,08,17,01,49,19.40
2008,08,17,01,50,19.40
2008,08,17,01,51,19.40
2008,08,17,01,52,19.40
2008,08,17,01,53,19.30
2008,08,17,01,54,19.30
2008,08,17,01,55,19.30
2008,08,17,01,56,19.30
2008,08,17,01,57,19.30
2008,08,17,01,58,19.30
2008,08,17,01,59,19.30
2008,08,17,02,00,19.30
2008,08,17,02,01,19.30
2008,08,17,02,02,19.30
2008,08,17,02,03,19.20
2008,08,17,02,04,19.20
2008,08,17,02,05,19.20
2008,08,17,02,06,19.20
2008,08,17,02,07,19.20
2008,08,17,02,08,19.20
2008,08,17,02,09,19.20
2008,08,17,02,10,19.20
2008,08,17,02,11,19.20
2008,08,17,02,12,19.20
2008,08,17,02,13,19.20
2008,08,17,02,14,19.20
2008,08,17,02,15,19.20
2008,08,17,02,16,19.10
2008,08,17,02,17,19.10
2008,08,17,02,18,19.10
2008,08,17,02,19,19.10
2008,08,17,02,20,19.10
2008,08,17,02,21,19.10
2008,08,17,02,22,19.10
2008,08,17,02,23,19.10
2008,08,17,02,24,19.10
2008,08,17,02,25,19.10
2008,08,17,02,26,19.10
2008,08,17,02,27,19.00
2008,08,17,02,28,19.00
2008,08,17,02,29,19.00
2008,08,17,02,30,19.00
2008,08,17,02,31,18.90
2008,08,17,02,32,18.90
2008,08,17,02,33,18.90
2008,08,17,02,34,18.90
2008,08,17,02,35,18.90
2008,08,17,02,36,18.90
2008,08,17,02,37,18.90
2008,08,17,02,38,18.90
2008,08,17,02,39,18.90
2008,08,17,02,40,18.80
2008,08,17,02,41,18.80
2008,08,17,02,42,18.80
2008,08,17,02,43,18.80
2008,08,17,02,44,18.80
2008,08,17,02,45,18.80
2008,08,17,02,46,18.80
2008,08,17,02,47,18.80
2008,08,17,02,48,18.80
2008,08,17,02,49,18.80
2008,08,17,02,50,18.70
2008,08,17,02,51,18.70
2008,08,17,02,52,18.70
2008,08,17,02,53,18.70
2008,08,17,02,54,18.70
2008,08,17,02,55,18.70
2008,08,17,02,56,18.70
2008,08,17,02,57,18.70
2008,08,17,02,58,18.70
2008,08,17,02,59,18.70
2008,08,17,03,00,18.70
2008,08,17,03,01,18.60
2008,08,17,03,02,18.60
2008,08,17,03,03,18.60
2008,08,17,03,04,18.60
2008,08,17,03,05,18.60
2008,08,17,03,06,18.60
2008,08,17,03,07,18.60
2008,08,17,03,08,18.60
2008,08,17,03,09,18.60
2008,08,17,03,10,18.60
2008,08,17,03,11,18.60
2008,08,17,03,12,18.60
2008,08,17,03,13,18.60
2008,08,17,03,14,18.50
2008,08,17,03,15,18.50
2008,08,17,03,16,18.50
2008,08,17,03,17,18.50
2008,08,17,03,18,18.50
2008,08,17,03,19,18.50
2008,08,17,03,20,18.50
2008,08,17,03,21,18.40
2008,08,17,03,22,18.40
2008,08,17,03,23,18.40
2008,08,17,03,24,18.40
2008,08,17,03,25,18.40
2008,08,17,03,26,18.40
2008,08,17,03,27,18.40
2008,08,17,03,28,18.40
2008,08,17,03,29,18.40
2008,08,17,03,30,18.40
2008,08,17,03,31,18.40
2008,08,17,03,32,18.40
2008,08,17,03,33,18.40
2008,08,17,03,34,18.40
2008,08,17,03,35,18.40
2008,08,17,03,36,18.40
2008,08,17,03,37,18.40
2008,08,17,03,38,18.30
2008,08,17,03,39,18.30
2008,08,17,03,40,18.30
2008,08,17,03,41,18.30
2008,08,17,03,42,18.30
2008,08,17,03,43,18.30
2008,08,17,03,44,18.30
2008,08,17,03,45,18.30
2008,08,17,03,46,18.30
2008,08,17,03,47,18.30
2008,08,17,03,48,18.30
2008,08,17,03,49,18.30
2008,08,17,03,50,18.30
2008,08,17,03,51,18.30
2008,08,17,03,52,18.30
2008,08,17,03,53,18.30
2008,08,17,03,54,18.30
2008,08,17,03,55,18.30
2008,08,17,03,56,18.30
2008,08,17,03,57,18.30
2008,08,17,03,58,18.30
2008,08,17,03,59,18.20
2008,08,17,04,00,18.20
2008,08,17,04,01,18.20
2008,08,17,04,02,18.20
2008,08,17,04,03,18.20
2008,08,17,04,04,18.20
2008,08,17,04,05,18.20
2008,08,17,04,06,18.20
2008,08,17,04,07,18.20
2008,08,17,04,08,18.20
2008,08,17,04,09,18.20
2008,08,17,04,10,18.10
2008,08,17,04,11,18.10
2008,08,17,04,12,18.10
2008,08,17,04,13,18.10
2008,08,17,04,14,18.10
2008,08,17,04,15,18.10
2008,08,17,04,16,18.10
2008,08,17,04,17,18.10
2008,08,17,04,18,18.10
2008,08,17,04,19,18.10
2008,08,17,04,20,18.10
2008,08,17,04,21,18.10
2008,08,17,04,22,18.10
2008,08,17,04,23,18.10
2008,08,17,04,24,18.00
2008,08,17,04,25,18.10
2008,08,17,04,26,18.00
2008,08,17,04,27,18.10
2008,08,17,04,28,18.10
2008,08,17,04,29,18.10
2008,08,17,04,30,18.10
2008,08,17,04,31,18.10
2008,08,17,04,32,18.10
2008,08,17,04,33,18.10
2008,08,17,04,34,18.10
2008,08,17,04,35,18.10
2008,08,17,04,36,18.10
2008,08,17,04,37,18.10
2008,08,17,04,38,18.10
2008,08,17,04,39,18.10
2008,08,17,04,40,18.10
2008,08,17,04,41,18.10
2008,08,17,04,42,18.10
2008,08,17,04,43,18.10
2008,08,17,04,44,18.10
2008,08,17,04,45,18.10
2008,08,17,04,46,18.10
2008,08,17,04,47,18.10
2008,08,17,04,48,18.00
2008,08,17,04,49,18.00
2008,08,17,04,50,18.00
2008,08,17,04,51,18.00
2008,08,17,04,52,18.00
2008,08,17,04,53,18.00
2008,08,17,04,54,18.00
2008,08,17,04,55,18.00
2008,08,17,04,56,17.90
2008,08,17,04,57,17.90
2008,08,17,04,58,17.90
2008,08,17,04,59,17.90
2008,08,17,05,00,17.90
2008,08,17,05,01,17.90
2008,08,17,05,02,17.90
2008,08,17,05,03,17.90
2008,08,17,05,04,17.90
2008,08,17,05,05,17.90
2008,08,17,05,06,17.90
2008,08,17,05,07,17.90
2008,08,17,05,08,17.90
2008,08,17,05,09,17.90
2008,08,17,05,10,17.90
2008,08,17,05,11,17.90
2008,08,17,05,12,17.90
2008,08,17,05,13,17.90
2008,08,17,05,14,17.90
2008,08,17,05,15,17.90
2008,08,17,05,16,17.90
2008,08,17,05,17,17.90
2008,08,17,05,18,18.00
2008,08,17,05,19,18.00
2008,08,17,05,20,18.00
2008,08,17,05,21,18.00
2008,08,17,05,22,18.00
2008,08,17,05,23,18.00
2008,08,17,05,24,18.00
2008,08,17,05,25,18.00
2008,08,17,05,26,18.00
2008,08,17,05,27,18.00
2008,08,17,05,28,18.00
2008,08,17,05,29,18.00
2008,08,17,05,30,18.00
2008,08,17,05,31,18.00
2008,08,17,05,32,18.00
2008,08,17,05,33,18.00
2008,08,17,05,34,18.00
2008,08,17,05,35,18.00
2008,08,17,05,36,18.10
2008,08,17,05,37,18.10
2008,08,17,05,38,18.10
2008,08,17,05,39,18.10
2008,08,17,05,40,18.10
2008,08,17,05,41,18.10
2008,08,17,05,42,18.10
2008,08,17,05,43,18.10
2008,08,17,05,44,18.10
2008,08,17,05,45,18.10
2008,08,17,05,46,18.10
2008,08,17,05,47,18.10
2008,08,17,05,48,18.20
2008,08,17,05,49,18.20
2008,08,17,05,50,18.20
2008,08,17,05,51,18.20
2008,08,17,05,52,18.20
2008,08,17,05,53,18.20
2008,08,17,05,54,18.20
2008,08,17,05,55,18.20
2008,08,17,05,56,18.20
2008,08,17,05,57,18.20
2008,08,17,05,58,18.20
2008,08,17,05,59,18.20
2008,08,17,06,00,18.20
2008,08,17,06,01,18.20
2008,08,17,06,02,18.20
2008,08,17,06,03,18.20
2008,08,17,06,04,18.20
2008,08,17,06,05,18.20
2008,08,17,06,06,18.20
2008,08,17,06,07,18.20
2008,08,17,06,08,18.20
2008,08,17,06,09,18.20
2008,08,17,06,10,18.20
2008,08,17,06,11,18.20
2008,08,17,06,12,18.20
2008,08,17,06,13,18.30
2008,08,17,06,14,18.30
2008,08,17,06,15,18.30
2008,08,17,06,16,18.30
2008,08,17,06,17,18.30
2008,08,17,06,18,18.30
2008,08,17,06,19,18.30
2008,08,17,06,20,18.30
2008,08,17,06,21,18.30
2008,08,17,06,22,18.30
2008,08,17,06,23,18.30
2008,08,17,06,24,18.30
2008,08,17,06,25,18.30
2008,08,17,06,26,18.30
2008,08,17,06,27,18.30
2008,08,17,06,28,18.30
2008,08,17,06,29,18.30
2008,08,17,06,30,18.30
2008,08,17,06,31,18.30
2008,08,17,06,32,18.30
2008,08,17,06,33,18.30
2008,08,17,06,34,18.30
2008,08,17,06,35,18.30
2008,08,17,06,36,18.30
2008,08,17,06,37,18.30
2008,08,17,06,38,18.30
2008,08,17,06,39,18.30
2008,08,17,06,40,18.30
2008,08,17,06,41,18.30
2008,08,17,06,42,18.30
2008,08,17,06,43,18.30
2008,08,17,06,44,18.30
2008,08,17,06,45,18.30
2008,08,17,06,46,18.30
2008,08,17,06,47,18.30
2008,08,17,06,48,18.30
2008,08,17,06,49,18.40
2008,08,17,06,50,18.40
2008,08,17,06,51,18.40
2008,08,17,06,52,18.40
2008,08,17,08,45,20.00
2008,08,17,08,46,20.00
2008,08,17,08,47,20.00
2008,08,17,08,48,20.00
2008,08,17,08,49,20.00
2008,08,17,08,50,20.00
2008,08,17,08,51,20.10
2008,08,17,08,52,20.10
2008,08,17,08,53,20.10
2008,08,17,08,54,20.10
2008,08,17,08,55,20.10
2008,08,17,08,56,20.10
2008,08,17,08,57,20.10
2008,08,17,08,58,20.10
2008,08,17,08,59,20.20
2008,08,17,09,00,20.20
2008,08,17,09,01,20.20
2008,08,17,09,02,20.20
2008,08,17,09,03,20.20
2008,08,17,09,04,20.20
2008,08,17,09,05,20.20
2008,08,17,09,06,20.30
2008,08,17,09,07,20.30
2008,08,17,09,08,20.30
2008,08,17,09,09,20.30
2008,08,17,09,10,20.30
2008,08,17,09,11,20.40
2008,08,17,09,12,20.40
2008,08,17,09,13,20.40
2008,08,17,09,14,20.40
2008,08,17,09,15,20.50
2008,08,17,09,16,20.50
2008,08,17,09,17,20.60
2008,08,17,09,18,20.60
2008,08,17,09,19,20.70
2008,08,17,09,20,20.70
2008,08,17,09,21,20.70
2008,08,17,09,22,20.80
2008,08,17,09,23,20.80
2008,08,17,09,24,20.80
2008,08,17,09,25,20.90
2008,08,17,09,26,20.90
2008,08,17,09,27,20.90
2008,08,17,09,28,20.90
2008,08,17,09,29,21.00
2008,08,17,09,30,21.00
2008,08,17,09,31,21.00
2008,08,17,09,32,21.10
2008,08,17,09,33,21.10
2008,08,17,09,34,21.10
2008,08,17,09,35,21.10
2008,08,17,09,36,21.20
2008,08,17,09,37,21.20
2008,08,17,09,38,21.20
2008,08,17,09,39,21.20
2008,08,17,09,40,21.30
2008,08,17,09,41,21.30
2008,08,17,09,42,21.40
2008,08,17,09,43,21.40
2008,08,17,09,44,21.40
2008,08,17,09,45,21.50
2008,08,17,09,46,21.50
2008,08,17,09,47,21.60
2008,08,17,09,48,21.60
2008,08,17,09,49,21.70
2008,08,17,09,50,21.80
2008,08,17,09,51,21.80
2008,08,17,09,52,21.90
2008,08,17,09,53,21.90
2008,08,17,09,54,22.00
2008,08,17,09,55,22.00
2008,08,17,09,56,22.10
2008,08,17,09,57,22.20
2008,08,17,09,58,22.20
2008,08,17,09,59,22.20
2008,08,17,10,00,22.30
2008,08,17,10,01,22.30
2008,08,17,10,02,22.30
2008,08,17,10,03,22.40
2008,08,17,10,04,22.40
2008,08,17,10,05,22.40
2008,08,17,10,06,22.50
2008,08,17,10,07,22.50
2008,08,17,10,08,22.60
2008,08,17,10,09,22.60
2008,08,17,10,10,22.70
2008,08,17,10,11,22.70
2008,08,17,10,12,22.80
2008,08,17,10,13,22.80
2008,08,17,10,14,22.90
2008,08,17,10,15,22.90
2008,08,17,10,16,23.00
2008,08,17,10,17,23.10
2008,08,17,10,18,23.10
2008,08,17,10,19,23.20
2008,08,17,10,20,23.30
2008,08,17,10,21,23.30
2008,08,17,10,22,23.40
2008,08,17,10,23,23.40
2008,08,17,10,24,23.50
2008,08,17,10,25,23.60
2008,08,17,10,26,23.70
2008,08,17,10,27,23.80
2008,08,17,10,28,23.80
2008,08,17,10,29,23.90
2008,08,17,10,30,23.90
2008,08,17,10,31,24.00
2008,08,17,10,32,24.00
2008,08,17,10,33,24.10
2008,08,17,10,34,24.10
2008,08,17,10,35,24.10
2008,08,17,10,36,24.20
2008,08,17,10,37,24.20
2008,08,17,10,38,24.30
2008,08,17,10,39,24.30
2008,08,17,10,40,24.40
2008,08,17,10,41,24.40
2008,08,17,10,42,24.50
2008,08,17,10,43,24.60
2008,08,17,10,44,24.60
2008,08,17,10,45,24.70
2008,08,17,10,46,24.70
2008,08,17,10,47,24.80
2008,08,17,10,48,24.80
2008,08,17,10,49,24.90
2008,08,17,10,50,25.10
2008,08,17,10,51,25.10
2008,08,17,10,52,25.20
2008,08,17,10,53,25.30
2008,08,17,10,54,25.40
2008,08,17,10,55,25.50
2008,08,17,10,56,25.60
2008,08,17,10,57,25.70
2008,08,17,10,58,25.80
2008,08,17,10,59,25.90
2008,08,17,11,00,25.90
2008,08,17,11,01,25.90
2008,08,17,11,02,26.00
2008,08,17,11,03,26.00
2008,08,17,11,04,26.10
2008,08,17,11,05,26.10
2008,08,17,11,06,26.20
2008,08,17,11,07,26.20
2008,08,17,11,08,26.20
2008,08,17,11,09,26.30
2008,08,17,11,10,26.30
2008,08,17,11,11,26.30
2008,08,17,11,12,26.40
2008,08,17,11,13,26.40
2008,08,17,11,14,26.40
2008,08,17,11,15,26.40
2008,08,17,11,16,26.40
2008,08,17,11,17,26.40
2008,08,17,11,18,26.40
2008,08,17,11,19,26.50
2008,08,17,11,20,26.50
2008,08,17,11,21,26.50
2008,08,17,11,22,26.50
2008,08,17,11,23,26.50
2008,08,17,11,24,26.60
2008,08,17,11,25,26.60
2008,08,17,11,26,26.60
2008,08,17,11,27,26.60
2008,08,17,11,28,26.70
2008,08,17,11,29,26.70
2008,08,17,11,30,26.70
2008,08,17,11,31,26.80
2008,08,17,11,32,26.80
2008,08,17,11,33,26.90
2008,08,17,11,34,26.90
2008,08,17,11,35,26.90
2008,08,17,11,36,27.00
2008,08,17,11,37,27.00
2008,08,17,11,38,27.10
2008,08,17,11,39,27.10
2008,08,17,11,40,27.20
2008,08,17,11,41,27.20
2008,08,17,11,42,27.20
2008,08,17,11,43,27.20
2008,08,17,11,44,27.30
2008,08,17,11,45,27.30
2008,08,17,11,46,27.30
2008,08,17,11,47,27.40
2008,08,17,11,48,27.40
2008,08,17,11,49,27.50
2008,08,17,11,50,27.50
2008,08,17,11,51,27.60
2008,08,17,11,52,27.60
2008,08,17,11,53,27.60
2008,08,17,11,54,27.60
2008,08,17,11,55,27.70
2008,08,17,11,56,27.70
2008,08,17,11,57,27.80
2008,08,17,11,58,27.80
2008,08,17,11,59,27.80
2008,08,17,12,00,27.90
2008,08,17,12,01,27.90
2008,08,17,12,02,27.90
2008,08,17,12,03,28.00
2008,08,17,12,04,28.10
2008,08,17,12,05,28.10
2008,08,17,12,06,28.20
2008,08,17,12,07,28.20
2008,08,17,12,08,28.30
2008,08,17,12,09,28.30
2008,08,17,12,10,28.40
2008,08,17,12,11,28.40
2008,08,17,12,12,28.40
2008,08,17,12,13,28.50
2008,08,17,12,14,28.50
2008,08,17,12,15,28.60
2008,08,17,12,16,28.60
2008,08,17,12,17,28.60
2008,08,17,12,18,28.60
2008,08,17,12,19,28.60
2008,08,17,12,20,28.60
2008,08,17,12,21,28.60
2008,08,17,12,22,28.70
2008,08,17,12,23,28.70
2008,08,17,12,24,28.70
2008,08,17,12,25,28.80
2008,08,17,12,26,28.90
2008,08,17,12,27,28.90
2008,08,17,12,28,29.00
2008,08,17,12,29,29.10
2008,08,17,12,30,29.20
2008,08,17,12,31,29.20
2008,08,17,12,32,29.30
2008,08,17,12,33,29.40
2008,08,17,12,34,29.50
2008,08,17,12,35,29.40
2008,08,17,12,36,29.40
2008,08,17,12,37,29.40
2008,08,17,12,38,29.40
2008,08,17,12,39,29.40
2008,08,17,12,40,29.40
2008,08,17,12,41,29.50
2008,08,17,12,42,29.50
2008,08,17,12,43,29.50
2008,08,17,12,44,29.60
2008,08,17,12,45,29.60
2008,08,17,12,46,29.60
2008,08,17,12,47,29.60
2008,08,17,12,48,29.60
2008,08,17,12,49,29.60
2008,08,17,12,50,29.60
2008,08,17,12,51,29.60
2008,08,17,12,52,29.60
2008,08,17,12,53,29.60
2008,08,17,12,54,29.70
2008,08,17,12,55,29.70
2008,08,17,12,56,29.70
2008,08,17,12,57,29.60
2008,08,17,12,58,29.60
2008,08,17,12,59,29.60
2008,08,17,13,00,29.60
2008,08,17,13,01,29.60
2008,08,17,13,02,29.60
2008,08,17,13,03,29.60
2008,08,17,13,04,29.60
2008,08,17,13,05,29.60
2008,08,17,13,06,29.60
2008,08,17,13,07,29.60
2008,08,17,13,08,29.60
2008,08,17,13,09,29.60
2008,08,17,13,10,29.70
2008,08,17,13,11,29.70
2008,08,17,13,12,29.80
2008,08,17,13,13,29.80
2008,08,17,13,14,29.90
2008,08,17,13,15,29.90
2008,08,17,13,16,29.90
2008,08,17,13,17,30.00
2008,08,17,13,18,30.10
2008,08,17,13,19,30.10
2008,08,17,13,20,30.10
2008,08,17,13,21,30.10
2008,08,17,13,22,30.10
2008,08,17,13,23,30.10
2008,08,17,13,24,30.10
2008,08,17,13,25,30.00
2008,08,17,13,26,30.00
2008,08,17,13,27,29.90
2008,08,17,13,28,29.90
2008,08,17,13,29,30.00
2008,08,17,13,30,30.10
2008,08,17,13,31,30.20
2008,08,17,13,32,30.20
2008,08,17,13,33,30.30
2008,08,17,13,34,30.30
2008,08,17,13,35,30.30
2008,08,17,13,36,30.30
2008,08,17,13,37,30.40
2008,08,17,13,38,30.50
2008,08,17,13,39,30.50
2008,08,17,13,40,30.60
2008,08,17,13,41,30.70
2008,08,17,13,42,30.80
2008,08,17,13,43,31.00
2008,08,17,13,44,31.10
2008,08,17,13,45,31.20
2008,08,17,13,46,31.30
2008,08,17,13,47,31.40
2008,08,17,13,48,31.60
2008,08,17,13,49,31.70
2008,08,17,13,50,31.80
2008,08,17,13,51,31.90
2008,08,17,13,52,32.00
2008,08,17,13,53,32.00
2008,08,17,13,54,32.10
2008,08,17,13,55,32.20
2008,08,17,13,56,32.30
2008,08,17,13,57,32.30
2008,08,17,13,58,32.40
2008,08,17,13,59,32.40
2008,08,17,14,00,32.40
2008,08,17,14,01,32.40
2008,08,17,14,02,32.50
2008,08,17,14,03,32.60
2008,08,17,14,04,32.60
2008,08,17,14,05,32.60
2008,08,17,14,06,32.70
2008,08,17,14,07,32.70
2008,08,17,14,08,32.70
2008,08,17,14,09,32.70
2008,08,17,14,10,32.80
2008,08,17,14,11,32.80
2008,08,17,14,12,32.80
2008,08,17,14,13,32.80
2008,08,17,14,14,32.80
2008,08,17,14,15,32.90
2008,08,17,14,16,33.00
2008,08,17,14,17,33.10
2008,08,17,14,18,33.20
2008,08,17,14,19,33.30
2008,08,17,14,20,33.40
2008,08,17,14,21,33.40
2008,08,17,14,22,33.40
2008,08,17,14,23,33.40
2008,08,17,14,24,33.40
2008,08,17,14,25,33.50
2008,08,17,14,26,33.50
2008,08,17,14,27,33.60
2008,08,17,14,28,33.70
2008,08,17,14,29,33.70
2008,08,17,14,30,33.80
2008,08,17,14,31,33.90
2008,08,17,14,32,33.90
2008,08,17,14,33,33.90
2008,08,17,14,34,34.00
2008,08,17,14,35,34.00
2008,08,17,14,36,34.00
2008,08,17,14,37,34.00
2008,08,17,14,38,33.90
2008,08,17,14,39,33.90
2008,08,17,14,40,33.70
2008,08,17,14,41,33.60
2008,08,17,14,42,33.50
2008,08,17,14,43,33.40
2008,08,17,14,44,33.30
2008,08,17,14,45,33.20
2008,08,17,14,46,33.20
2008,08,17,14,47,33.10
2008,08,17,14,48,32.90
2008,08,17,14,49,32.80
2008,08,17,14,50,32.80
2008,08,17,14,51,32.80
2008,08,17,14,52,32.80
2008,08,17,14,53,32.80
2008,08,17,14,54,32.70
2008,08,17,14,55,32.70
2008,08,17,14,56,32.70
2008,08,17,14,57,32.70
2008,08,17,14,58,32.70
2008,08,17,14,59,32.80
2008,08,17,15,00,32.80
2008,08,17,15,01,32.90
2008,08,17,15,02,32.90
2008,08,17,15,03,33.10
2008,08,17,15,04,33.20
2008,08,17,15,05,33.30
2008,08,17,15,06,33.50
2008,08,17,15,07,33.60
2008,08,17,15,08,33.70
2008,08,17,15,09,33.70
2008,08,17,15,10,33.70
2008,08,17,15,11,33.70
2008,08,17,15,12,33.70
2008,08,17,15,13,33.70
2008,08,17,15,14,33.80
2008,08,17,15,15,33.80
2008,08,17,15,16,33.80
2008,08,17,15,17,33.90
2008,08,17,15,18,34.00
2008,08,17,15,19,34.00
2008,08,17,15,20,34.10
2008,08,17,15,21,34.10
2008,08,17,15,22,34.10
2008,08,17,15,23,34.00
2008,08,17,15,24,34.00
2008,08,17,15,25,34.00
2008,08,17,15,26,34.00
2008,08,17,15,27,33.90
2008,08,17,15,28,33.80
2008,08,17,15,29,33.70
2008,08,17,15,30,33.60
2008,08,17,15,31,33.60
2008,08,17,15,32,33.50
2008,08,17,15,33,33.40
2008,08,17,15,34,33.30
2008,08,17,15,35,33.20
2008,08,17,15,36,33.20
2008,08,17,15,37,33.20
2008,08,17,15,38,33.20
2008,08,17,15,39,33.10
2008,08,17,15,40,33.10
2008,08,17,15,41,33.10
2008,08,17,15,42,33.00
2008,08,17,15,43,33.00
2008,08,17,15,44,33.00
2008,08,17,15,45,32.90
2008,08,17,15,46,32.80
2008,08,17,15,47,32.80
2008,08,17,15,48,32.70
2008,08,17,15,49,32.70
2008,08,17,15,50,32.50
2008,08,17,15,51,32.40
2008,08,17,15,52,32.40
2008,08,17,15,53,32.30
2008,08,17,15,54,32.20
2008,08,17,15,55,32.10
2008,08,17,15,56,32.00
2008,08,17,15,57,31.90
2008,08,17,15,58,31.80
2008,08,17,15,59,31.70
2008,08,17,16,00,31.50
2008,08,17,16,01,31.40
2008,08,17,16,02,31.20
2008,08,17,16,03,31.10
2008,08,17,16,04,31.00
2008,08,17,16,05,30.80
2008,08,17,16,06,30.70
2008,08,17,16,07,30.60
2008,08,17,16,08,30.60
2008,08,17,16,09,30.50
2008,08,17,16,10,30.40
2008,08,17,16,11,30.30
2008,08,17,16,12,30.30
2008,08,17,16,13,30.20
2008,08,17,16,14,30.20
2008,08,17,16,15,30.20
2008,08,17,16,16,30.20
2008,08,17,16,17,30.20
2008,08,17,16,18,30.20
2008,08,17,16,19,30.20
2008,08,17,16,20,30.20
2008,08,17,16,21,30.10
2008,08,17,16,22,30.10
2008,08,17,16,23,30.10
2008,08,17,16,24,30.00
2008,08,17,16,25,29.90
2008,08,17,16,26,29.90
2008,08,17,16,27,29.80
2008,08,17,16,28,29.70
2008,08,17,16,29,29.70
2008,08,17,16,30,29.70
2008,08,17,16,31,29.60
2008,08,17,16,32,29.60
2008,08,17,16,33,29.60
2008,08,17,16,34,29.60
2008,08,17,16,35,29.60
2008,08,17,16,36,29.60
2008,08,17,16,37,29.60
2008,08,17,16,38,29.60
2008,08,17,16,39,29.60
2008,08,17,16,40,29.60
2008,08,17,16,41,29.60
2008,08,17,16,42,29.50
2008,08,17,16,43,29.40
2008,08,17,16,44,29.40
2008,08,17,16,45,29.30
2008,08,17,16,46,29.20
2008,08,17,16,47,29.20
2008,08,17,16,48,29.10
2008,08,17,16,49,29.00
2008,08,17,16,50,28.90
2008,08,17,16,51,28.80
2008,08,17,16,52,28.70
2008,08,17,16,53,28.70
2008,08,17,16,54,28.60
2008,08,17,16,55,28.60
2008,08,17,16,56,28.60
2008,08,17,16,57,28.50
2008,08,17,16,58,28.40
2008,08,17,16,59,28.40
2008,08,17,17,00,28.30
2008,08,17,17,01,28.20
2008,08,17,17,02,28.20
2008,08,17,17,03,28.10
2008,08,17,17,04,28.10
2008,08,17,17,05,28.00
2008,08,17,17,06,28.00
2008,08,17,17,07,27.90
2008,08,17,17,08,27.90
2008,08,17,17,09,27.80
2008,08,17,17,10,27.80
2008,08,17,17,11,27.80
2008,08,17,17,12,27.70
2008,08,17,17,13,27.70
2008,08,17,17,14,27.70
2008,08,17,17,15,27.70
2008,08,17,17,16,27.70
2008,08,17,17,17,27.70
2008,08,17,17,18,27.70
2008,08,17,17,19,27.70
2008,08,17,17,20,27.70
2008,08,17,17,21,27.60
2008,08,17,17,22,27.60
2008,08,17,17,23,27.60
2008,08,17,17,24,27.60
2008,08,17,17,25,27.60
2008,08,17,17,26,27.60
2008,08,17,17,27,27.60
2008,08,17,17,28,27.60
2008,08,17,17,29,27.60
2008,08,17,17,30,27.60
2008,08,17,17,31,27.60
2008,08,17,17,32,27.60
2008,08,17,17,33,27.60
2008,08,17,17,34,27.70
2008,08,17,17,35,27.70
2008,08,17,17,36,27.70
2008,08,17,17,37,27.70
2008,08,17,17,38,27.70
2008,08,17,17,39,27.70
2008,08,17,17,40,27.70
2008,08,17,17,41,27.70
2008,08,17,17,42,27.60
2008,08,17,17,43,27.60
2008,08,17,17,44,27.60
2008,08,17,17,45,27.60
2008,08,17,17,46,27.60
2008,08,17,17,47,27.50
2008,08,17,17,48,27.50
2008,08,17,17,49,27.50
2008,08,17,17,50,27.40
2008,08,17,17,51,27.40
2008,08,17,17,52,27.40
2008,08,17,17,53,27.40
2008,08,17,17,54,27.40
2008,08,17,17,55,27.30
2008,08,17,17,56,27.30
2008,08,17,17,57,27.30
2008,08,17,17,58,27.30
2008,08,17,17,59,27.30
2008,08,17,18,00,27.30
2008,08,17,18,01,27.20
2008,08,17,18,02,27.20
2008,08,17,18,03,27.20
2008,08,17,18,04,27.20
2008,08,17,18,05,27.20
2008,08,17,18,06,27.10
2008,08,17,18,07,27.10
2008,08,17,18,08,27.10
2008,08,17,18,09,27.10
2008,08,17,18,10,27.10
2008,08,17,18,11,27.10
2008,08,17,18,12,27.10
2008,08,17,18,13,27.00
2008,08,17,18,14,27.00
2008,08,17,18,15,27.00
2008,08,17,18,16,27.00
2008,08,17,18,17,27.00
2008,08,17,18,18,27.00
2008,08,17,18,19,27.00
2008,08,17,18,20,26.90
2008,08,17,18,21,26.90
2008,08,17,18,22,26.90
2008,08,17,18,23,26.90
2008,08,17,18,24,26.90
2008,08,17,18,25,26.90
2008,08,17,18,26,26.90
2008,08,17,18,27,26.90
2008,08,17,18,28,26.80
2008,08,17,18,29,26.80
2008,08,17,18,30,26.80
2008,08,17,18,31,26.80
2008,08,17,18,32,26.80
2008,08,17,18,33,26.80
2008,08,17,18,34,26.80
2008,08,17,18,35,26.80
2008,08,17,18,36,26.80
2008,08,17,18,37,26.80
2008,08,17,18,38,26.80
2008,08,17,18,39,26.80
2008,08,17,18,40,26.80
2008,08,17,18,41,26.80
2008,08,17,18,42,26.80
2008,08,17,18,43,26.80
2008,08,17,18,44,26.80
2008,08,17,18,45,26.80
2008,08,17,18,46,26.80
2008,08,17,18,47,26.80
2008,08,17,18,48,26.80
2008,08,17,18,49,26.80
2008,08,17,18,50,26.80
2008,08,17,18,51,26.80
2008,08,17,18,52,26.80
2008,08,17,18,53,26.80
2008,08,17,18,54,26.80
2008,08,17,18,55,26.80
2008,08,17,18,56,26.80
2008,08,17,18,57,26.80
2008,08,17,18,58,26.70
2008,08,17,18,59,26.70
2008,08,17,19,00,26.70
2008,08,17,19,01,26.70
2008,08,17,19,02,26.70
2008,08,17,19,03,26.60
2008,08,17,19,04,26.60
2008,08,17,19,05,26.60
2008,08,17,19,06,26.60
2008,08,17,19,07,26.60
2008,08,17,19,08,26.50
2008,08,17,19,09,26.50
2008,08,17,19,10,26.40
2008,08,17,19,11,26.40